Theta_e
291 295 295 293 293 293 289 288 282 287 289 291 293 294 295 296 299 297 297 298 298 297 297 298 299 301 302 303 303 303 302 304 305 307 309 306 304 302 303 302 303 302 301 301
289 295 293 290 292 292 293 292 291 292 290 295 296 297 297 296 297 297 297 299 299 299 299 298 299 301 303 303 302 303 303 304 307 309 305 303 302 301 301 300 300 300 300 300
283 291 290 281 290 291 293 295 292 286 291 295 294 296 294 294 296 297 298 298 298 298 299 299 299 302 302 303 303 302 303 306 305 304 302 301 300 300 299 298 299 298 299 299
279 284 272 286 295 297 296 296 296 295 295 295 294 296 296 296 295 297 297 297 297 297 298 298 300 301 301 303 303 302 304 305 303 301 299 299 299 298 298 298 298 298 298 299
277 273 285 291 295 294 290 290 296 293 295 296 296 294 293 298 298 296 296 296 296 297 296 296 299 301 301 302 303 303 304 302 301 299 298 298 297 297 298 298 298 295 296 294
280 281 279 288 298 300 297 283 296 296 294 294 294 288 291 297 297 296 296 296 296 296 296 298 298 299 301 301 301 302 301 299 299 299 297 297 297 297 297 297 298 297 296 297
284 285 288 296 300 300 286 285 295 296 295 294 291 293 296 297 295 295 295 296 296 296 296 297 298 300 300 300 300 300 300 299 298 298 297 297 297 297 297 299 299 298 299 299
288 286 284 302 297 291 292 294 296 296 297 296 296 296 296 296 294 294 293 294 296 295 296 297 298 300 298 300 299 299 299 298 298 298 299 299 298 298 300 300 299 298 298 299
288 287 295 298 296 297 298 296 296 296 296 295 295 295 295 294 293 292 293 294 295 295 296 297 298 298 297 298 299 298 298 297 297 298 298 299 298 299 300 300 297 297 297 296
288 291 293 296 297 298 298 296 296 295 294 294 293 294 293 292 291 291 292 293 295 296 295 296 298 300 299 299 299 298 297 297 297 295 295 295 296 295 295 293 293 293 292 290
288 293 295 296 297 297 297 297 296 296 296 294 292 290 290 291 291 294 291 294 295 295 295 297 299 298 299 299 299 297 297 297 297 295 294 293 293 293 293 292 293 291 292 291
285 294 293 294 296 297 295 295 295 294 292 292 291 290 291 292 294 292 291 294 295 296 297 298 298 298 298 300 299 296 295 294 292 291 290 290 290 291 293 292 292 291 291 292
293 296 296 298 297 296 295 294 294 292 292 291 291 294 293 292 292 294 294 294 295 297 299 298 298 298 299 298 295 293 291 292 292 292 291 290 290 290 288 292 293 293 292 291
300 299 295 296 294 295 293 293 293 292 292 292 294 294 294 292 293 293 294 296 299 299 298 298 298 297 297 296 295 294 293 296 293 295 295 292 291 290 290 289 289 291 294 294
301 299 297 296 295 294 293 292 291 291 294 293 294 294 293 293 294 297 300 299 300 299 298 298 296 294 295 296 295 295 295 298 299 297 297 293 291 291 290 290 291 292 296 297
298 297 296 294 293 292 291 290 290 292 292 293 293 294 295 297 299 299 300 299 297 296 297 295 293 294 297 296 295 296 299 296 296 298 292 290 290 289 289 291 292 293 293 293
293 293 293 291 290 289 289 292 293 293 293 293 293 295 297 297 298 297 298 299 298 297 296 293 293 296 297 297 298 300 299 294 292 292 290 289 289 289 290 291 292 292 292 292
295 293 291 290 289 289 293 294 294 293 293 294 295 296 296 295 295 296 297 297 296 293 293 293 295 296 297 298 299 299 296 292 290 289 290 290 290 290 291 291 292 293 294 294
294 293 292 292 293 294 294 293 294 294 295 295 296 295 296 296 296 297 297 295 292 291 291 294 297 297 297 298 296 295 293 292 291 290 291 291 291 290 291 291 291 291 293 294
293 293 292 294 295 295 294 295 295 295 295 296 296 295 294 295 296 296 296 294 294 292 293 295 295 296 297 298 293 293 294 292 291 290 292 291 290 290 290 289 291 291 291 290
292 293 294 294 294 295 295 295 295 294 295 296 294 294 294 295 296 296 295 291 293 293 294 295 296 297 297 295 294 293 292 292 291 291 291 290 290 290 290 290 290 290 289 289
291 294 294 295 294 294 295 295 296 296 295 295 295 295 295 295 295 295 295 291 291 293 295 296 297 292 291 291 293 293 294 293 292 292 292 291 291 290 289 290 289 289 288 287
292 294 295 295 294 293 295 296 295 295 295 294 294 294 294 294 296 294 291 293 294 294 295 296 289 286 287 294 295 294 294 294 293 292 292 291 290 290 290 289 289 289 288 287
294 295 295 295 295 294 293 295 295 295 295 295 296 296 296 295 294 294 293 292 291 293 294 291 288 287 290 294 295 294 294 294 293 292 291 288 290 290 290 290 289 288 288 287
293 295 295 294 293 293 294 295 295 295 295 294 295 296 297 297 296 295 295 295 292 293 295 289 287 289 294 294 294 293 292 292 291 292 292 292 291 291 290 290 289 289 288 288
295 294 295 294 294 295 295 295 294 294 294 293 294 295 296 297 297 298 296 294 296 293 295 295 295 295 294 294 294 294 293 293 294 292 292 292 292 291 291 291 290 290 289 288
293 294 294 294 295 295 295 295 295 294 293 294 293 295 295 296 297 296 294 295 295 296 296 294 294 293 293 294 294 294 294 294 291 293 294 293 293 292 292 291 291 290 290 289
Wind_Speed
3 5 6 10 10 11 7 9 6 3 6 1 1 2 2 3 2 5 6 6 7 7 7 6 7 7 6 5 6 9 11 11 10 10 2 3 5 5 6 5 5 4 6 7
4 7 6 8 8 7 6 0 6 7 4 1 2 3 6 3 4 4 6 6 7 7 8 8 8 9 9 5 7 9 9 10 10 4 6 6 5 5 5 4 4 3 8 6
6 6 8 5 3 6 3 6 3 2 2 4 3 5 2 2 3 6 6 6 8 11 11 8 9 12 13 8 7 8 9 8 7 6 7 6 6 5 6 5 4 5 5 5
3 5 4 7 8 3 8 5 5 3 3 1 3 5 4 1 3 7 6 7 9 10 8 7 11 11 12 10 8 7 8 5 6 6 6 6 7 6 5 3 4 3 4 4
4 3 7 4 4 4 2 2 1 2 5 4 4 3 3 1 2 3 5 7 7 7 5 7 11 11 12 8 7 6 5 6 6 6 7 6 6 4 4 4 5 5 3 5
2 2 4 1 3 6 2 5 5 3 4 4 3 6 6 4 4 5 6 6 6 6 5 5 9 11 10 6 5 5 6 7 7 6 6 5 3 4 4 3 3 3 4 4
2 3 7 6 1 5 3 8 3 3 3 4 4 7 5 5 5 5 5 7 6 5 6 10 9 8 7 6 6 7 7 7 6 5 5 4 4 3 5 5 3 3 4 5
2 4 7 2 2 4 10 4 2 4 5 7 8 7 7 7 7 7 7 7 4 6 8 7 7 5 5 3 6 6 6 7 6 5 3 3 5 5 4 4 5 5 5 5
9 7 4 3 4 4 4 5 5 5 3 4 6 5 7 7 6 6 7 5 4 7 7 7 6 4 4 5 5 6 6 5 4 4 5 4 4 5 4 4 4 4 4 4
4 2 4 5 3 3 3 2 1 2 3 4 5 7 8 6 6 5 4 4 6 6 6 7 7 3 8 6 6 5 5 4 5 5 5 5 4 4 5 4 4 4 4 4
3 5 6 4 2 1 1 3 3 4 4 6 5 6 6 7 8 7 4 5 5 5 5 6 5 7 7 6 5 5 4 4 5 4 5 5 5 3 3 2 2 1 1 2
6 8 6 7 3 2 3 4 6 6 6 4 4 6 7 10 8 6 8 7 5 4 3 5 6 7 6 4 4 4 4 4 4 4 4 4 4 4 4 2 3 7 4 2
6 5 6 2 4 3 4 3 4 6 6 6 6 9 10 10 7 11 8 6 4 0 5 6 6 7 5 5 5 5 5 5 3 4 4 4 4 4 5 7 9 13 17 15
3 2 2 1 3 3 3 1 1 1 3 5 9 9 8 8 10 9 8 5 2 5 7 5 6 7 5 4 4 4 4 7 2 1 1 1 3 3 4 4 4 7 12 14
5 6 6 5 3 3 3 2 5 6 4 8 8 8 7 8 8 8 7 9 8 9 7 5 7 4 3 3 4 5 5 4 4 3 1 2 3 5 5 6 7 6 8 11
5 6 5 5 5 5 5 6 5 5 6 6 7 8 7 6 4 6 8 9 9 6 6 5 5 3 5 5 5 5 5 9 6 2 3 5 5 4 4 6 8 8 7 5
2 5 6 5 5 4 4 4 3 5 6 7 6 5 5 5 8 8 8 9 7 5 4 6 5 6 5 3 5 4 4 5 7 6 5 4 4 5 6 7 7 7 6 6
8 5 5 4 3 4 5 3 4 5 6 5 3 3 5 6 6 7 7 6 6 9 8 5 5 3 4 6 6 2 4 4 4 5 4 5 5 5 6 6 7 8 7 9
7 6 4 3 3 4 3 3 4 5 3 3 4 5 6 6 7 7 6 6 7 7 4 4 2 3 7 8 6 5 5 5 5 5 5 6 6 6 7 7 8 7 8 8
5 4 4 4 5 3 3 3 4 2 3 4 5 6 7 6 6 7 7 8 5 3 3 2 2 6 7 8 8 5 7 6 6 5 7 7 6 6 7 9 9 7 7 7
5 5 3 4 4 3 4 4 1 3 3 5 5 6 6 6 6 4 5 4 4 3 2 4 5 5 5 4 6 7 6 6 6 6 6 5 6 7 7 7 8 8 8 7
3 3 4 3 3 4 4 3 3 3 5 5 5 6 6 6 6 6 5 4 1 4 2 4 5 6 4 5 7 6 7 7 5 6 7 6 7 7 6 7 6 7 7 6
2 2 3 3 3 3 3 3 3 4 5 5 5 5 4 3 2 4 5 1 1 1 3 5 6 6 6 6 7 7 8 8 7 6 6 6 5 6 6 6 6 6 6 6
1 2 2 3 2 2 2 2 4 4 5 5 5 5 4 4 4 3 4 3 2 2 5 4 6 3 10 6 7 7 7 7 6 6 6 7 6 6 6 6 6 5 6 7
1 1 2 3 1 1 2 4 4 5 5 5 5 4 3 2 3 3 3 2 2 4 4 4 5 10 6 6 6 7 5 5 5 6 5 6 6 6 5 5 5 5 5 5
2 1 1 3 2 1 2 3 4 3 3 4 3 3 3 3 4 3 0 3 3 2 2 3 5 6 6 6 6 7 6 6 6 6 6 6 6 5 5 6 6 5 5 5
1 2 3 2 1 2 2 3 4 4 3 3 4 2 3 4 2 2 2 1 1 3 3 5 5 6 6 6 6 6 5 5 6 6 5 5 5 5 6 6 5 5 5 6
Wind_Direction
234 282 291 292 300 298 278 239 180 313 123 204 68 58 337 341 51 29 6 342 304 293 294 294 306 290 281 287 305 318 320 305 308 302 75 62 50 52 54 39 40 30 63 51
275 254 287 295 290 295 268 303 106 136 118 230 319 333 350 19 30 341 291 295 316 311 306 299 304 304 298 286 305 314 312 307 317 8 65 59 53 44 54 44 46 44 55 39
277 330 319 9 233 310 27 15 96 141 214 249 299 334 312 214 293 286 313 330 328 323 309 311 311 317 313 287 304 303 301 322 20 34 55 50 51 46 36 24 26 32 41 24
246 10 8 232 323 50 112 90 81 100 287 268 233 268 263 245 330 336 336 320 316 315 311 311 318 321 314 295 290 294 307 25 36 55 56 46 44 26 21 5 24 29 25 13
125 181 283 332 9 1 347 228 158 281 303 256 297 297 272 284 296 279 282 290 291 296 310 320 328 322 317 305 301 305 34 40 54 63 60 49 42 10 6 5 25 9 8 356
119 168 252 233 260 340 296 276 217 225 278 294 335 323 274 248 277 273 285 291 289 298 303 316 329 325 322 341 330 47 50 57 61 61 63 60 35 354 336 4 9 358 353 357
145 235 276 248 50 338 63 246 273 320 269 266 242 221 256 316 298 287 290 304 305 332 326 327 329 330 352 337 42 59 69 71 62 58 54 26 360 339 330 352 358 18 22 8
173 225 264 232 82 146 220 307 283 264 256 262 258 290 302 298 299 318 322 316 3 333 332 327 315 311 327 13 63 73 69 65 54 45 25 334 325 324 17 22 39 27 32 25
175 216 241 337 238 281 184 226 260 260 302 330 305 304 300 287 301 310 307 325 339 329 326 318 310 301 324 89 85 82 79 65 42 344 348 0 16 26 53 32 26 18 29 27
55 322 350 295 306 349 290 278 40 349 355 336 297 300 296 292 292 297 309 333 326 324 324 318 321 20 95 99 99 95 72 50 13 35 28 26 36 30 56 38 48 38 41 34
279 282 322 264 29 211 115 52 16 344 327 321 335 319 305 307 310 305 334 312 305 308 311 325 76 82 85 95 100 83 66 27 38 36 47 51 42 25 55 339 292 125 107 96
228 243 210 257 193 141 63 12 353 357 330 318 327 304 310 312 314 317 303 297 303 307 322 92 95 90 96 106 81 81 54 26 49 57 42 40 33 14 333 292 21 48 26 151
236 226 208 150 141 100 86 28 350 357 326 325 318 323 328 315 301 301 296 289 288 236 98 105 105 112 111 64 62 48 37 22 46 56 41 23 11 26 25 340 21 23 31 39
218 113 71 88 162 116 104 21 33 317 313 343 327 318 305 293 296 288 273 255 203 116 109 121 112 94 82 68 58 32 20 24 47 29 346 9 48 39 42 35 5 29 23 43
112 102 133 136 104 52 349 333 344 351 4 342 327 323 303 307 310 333 78 114 111 105 105 105 88 97 96 58 30 6 360 335 306 281 291 357 34 29 36 55 47 54 58 43
98 114 81 65 39 21 22 349 346 350 343 320 321 318 316 320 21 60 85 102 105 107 121 115 133 87 46 33 360 319 292 254 233 168 100 67 47 50 44 57 61 57 44 23
71 355 10 10 5 355 331 334 20 339 316 318 310 312 349 32 74 76 71 74 86 96 123 81 62 43 28 338 295 296 320 83 88 75 74 78 62 53 54 64 64 57 50 38
92 84 65 59 5 329 333 4 353 321 316 313 323 25 50 62 81 79 78 89 86 61 56 66 67 41 308 305 308 342 75 70 73 86 76 60 58 59 57 61 62 63 59 47
65 63 60 26 330 311 328 358 328 312 349 4 59 67 66 66 73 74 73 62 68 89 21 67 80 312 317 314 329 83 89 89 76 64 74 77 65 59 64 62 61 53 58 56
72 64 33 344 338 342 353 350 319 74 36 65 81 75 72 66 78 81 71 73 63 114 148 155 353 338 329 355 58 95 93 86 81 72 78 73 69 69 66 63 69 65 61 50
73 21 352 322 323 18 356 332 344 108 73 83 86 83 82 72 64 69 78 83 11 61 61 10 346 345 348 3 88 83 86 84 78 82 81 74 67 64 68 64 69 71 68 60
60 21 357 21 35 358 354 350 88 89 95 97 93 95 97 90 86 70 45 116 288 59 16 340 331 338 342 59 90 91 91 86 79 80 78 76 77 76 68 69 71 73 69 60
58 10 349 39 41 340 338 70 78 89 93 103 106 102 92 90 98 119 115 327 116 27 340 318 334 4 96 82 91 86 87 85 85 89 88 84 84 82 81 77 80 80 73 61
74 359 6 83 31 356 54 84 86 85 94 97 91 95 121 121 70 77 97 134 178 318 323 349 353 116 85 88 93 94 93 94 93 87 82 81 83 81 79 86 88 84 82 78
132 350 118 109 85 39 88 102 104 91 91 84 81 91 89 33 115 153 124 151 279 337 340 357 122 87 89 98 93 95 95 95 91 97 90 92 89 91 90 85 86 88 88 83
166 263 165 123 163 153 112 96 112 112 112 102 73 88 86 75 91 104 96 291 289 325 26 69 95 97 103 100 100 102 102 100 93 94 98 94 93 90 89 90 89 83 79 74
139 146 120 127 197 163 131 108 116 129 126 120 117 119 105 89 68 311 273 169 113 75 74 103 108 102 103 103 97 103 101 94 92 96 97 96 90 87 85 83 77 77 75 76